[[{"header":{"parameterUnit":"m.s-1","parameterCategory":1,"la1":30.2991,"la2":30.254,"lo1":-89.0895,"lo2":-89.0444,"dx":0.0017,"dy":0.0017,"nx":28,"ny":28,"refTime":"2022-11-16T09:00:00:Z","depth":0,"parameterNumber":2,"parameterNumberName":"U-component_of_WINDS"},"data":[0,0,0,0,0,0,0,0,0,0,0,0,0,0,0,0,0,0,0,0,0,0,0,0,0,0,0,0,0,0,0,0,0,0,0,0,0,0,0,0,0,0,0,0,0,0,0,0,0,0,0,0,0,0,0,0,0,0,0.4831,0.483,0,0.4811,0.4811,0.4811,0.4846,0.4847,0.4849,0.485,0.4827,0.4825,0.4823,0,0,0,0,0,0,0,0,0,0,0,0,0,0.4895,0.4894,0.4831,0.483,0.483,0.4812,0.4811,0.4811,0.4846,0.4847,0.4849,0.485,0.4827,0.4825,0.4823,0,0,0,0,0,0,0,0,0,0,0,0,0,0.4871,0.4894,0.4831,0.4846,0.4847,0.4812,0.4811,0.4811,0.4846,0.4847,0.4849,0.4851,0.4828,0.4825,0.4823,0.4771,0,0,0.4815,0.4814,0,0,0,0,0,0,0,0,0.4872,0.4868,0.4844,0.4844,0.4846,0.4833,0.4826,0.4797,0.4845,0.4846,0.485,0.4852,0.4827,0.4825,0.4817,0.477,0.4769,0.4815,0.4813,0.4812,0.4811,0,0,0,0,0,0,0,0.4874,0.4869,0.4823,0.4843,0.4844,0.4852,0.4851,0.482,0.4827,0.4846,0.4849,0.4846,0.4828,0.4819,0.4817,0.4769,0.4815,0.4812,0.4811,0.481,0.4679,0.4677,0,0,0,0,0,0,0.4874,0.4871,0.4824,0.4822,0.4864,0.485,0.4848,0.4835,0.4827,0.4828,0.4844,0.4848,0.4823,0.482,0.4816,0.4754,0.4812,0.481,0.4808,0.468,0.4678,0.4676,0,0,0,0,0,0,0.4875,0.4869,0.4824,0.4847,0.4842,0.4847,0.4832,0.4834,0.4825,0.4826,0.4827,0.4835,0.4824,0.482,0.4782,0.4754,0.4808,0.4806,0.4683,0.468,0.4677,0.4631,0,0,0,0,0,0,0.4877,0.487,0.4851,0.4847,0.4841,0.4791,0.483,0.4832,0.4821,0.4825,0.4817,0.4817,0.4825,0.4786,0.478,0.4752,0.4804,0.4685,0.4681,0.4678,0.4635,0.4627,0.462,0,0,0,0,0,0.4879,0.4838,0.4849,0.4844,0.4817,0.479,0.4786,0.4797,0.4819,0.4799,0.48,0.4818,0.4759,0.4782,0.4775,0.4746,0.4687,0.4683,0.4678,0.4638,0.4628,0.462,0,0,0,0,0,0,0.4837,0.4837,0.485,0.4807,0.4798,0.4796,0.4771,0.4786,0.477,0.4775,0.4788,0.4786,0.4745,0.4742,0.4768,0.4695,0.4726,0.4721,0.4698,0.4689,0.4682,0.4682,0.4802,0,0,0,0,0,0.4823,0.4801,0.4803,0.4764,0.4759,0.4766,0.4754,0.4764,0.4755,0.4751,0.4749,0.4739,0.4718,0.4704,0.4685,0.4636,0.4634,0.4612,0.4605,0.4599,0.4592,0.4565,0.4555,0.4662,0.4662,0.4662,0,0,0.4793,0.479,0.4776,0.4756,0.475,0.4726,0.4762,0.4736,0.4719,0.4747,0.4711,0.4709,0.4699,0.4655,0.4636,0.4651,0.4563,0.4593,0.4588,0.4585,0.456,0.455,0.4541,0.4659,0.4659,0.466,0,0,0.4725,0.4722,0.4689,0.4683,0.4675,0.468,0.4672,0.4668,0.4668,0.4633,0.4654,0.4633,0.4597,0.4589,0.458,0.4511,0.4526,0.4505,0.4464,0.4438,0.4429,0.4422,0.4396,0.4386,0.4499,0.4499,0.4499,0,0.4688,0.4655,0.467,0.4642,0.4632,0.4659,0.4625,0.4618,0.4604,0.4596,0.4614,0.457,0.4565,0.4519,0.4502,0.4495,0.4485,0.4504,0.443,0.4422,0.4416,0.4391,0.4381,0.4496,0.4497,0.4497,0.4497,0,0.4609,0.4586,0.456,0.4546,0.4534,0.4503,0.4513,0.4498,0.4509,0.4512,0.4476,0.4472,0.4452,0.4442,0.4452,0.4398,0.4408,0.4428,0.4459,0.4402,0.4379,0.437,0.4493,0.4494,0.4494,0.4495,0,0,0.4512,0.4508,0.4498,0.4492,0.4486,0.4467,0.4438,0.442,0.4407,0.4397,0.4371,0.4341,0.436,0.435,0.436,0.4337,0.4281,0.436,0.4359,0.4343,0.4219,0.4202,0.4191,0.4293,0.4291,0.429,0.4219,0,0.4443,0.4393,0.4407,0.4356,0.4334,0.436,0.4334,0.4327,0.433,0.4311,0.4314,0.4291,0.4319,0.4313,0.4291,0.4292,0.4256,0.4298,0.4267,0.4266,0.4266,0.4179,0.4161,0.4095,0.4211,0.4209,0.4208,0,0.4356,0.4344,0.4291,0.4289,0.428,0.4256,0.4241,0.4223,0.4216,0.4219,0.4209,0.4223,0.4194,0.4227,0.4186,0.4214,0.4203,0.4202,0.42,0.4195,0.4231,0.417,0.4074,0.4063,0.4194,0.4195,0.4196,0,0.4288,0.4258,0.4223,0.4217,0.4214,0.4196,0.4194,0.4189,0.4177,0.4164,0.4156,0.414,0.413,0.4116,0.4126,0.415,0.4082,0.4117,0.4083,0.4082,0.4064,0.4065,0.3963,0.4062,0.4062,0.4062,0.4062,0,0.4209,0.4175,0.4192,0.4169,0.4133,0.4149,0.4112,0.4112,0.4108,0.4085,0.4108,0.4086,0.4102,0.4081,0.4089,0.4053,0.4048,0.4049,0.4051,0.4046,0.4045,0.4036,0.404,0.4059,0.406,0.406,0.4061,0,0.4124,0.4135,0.4097,0.4098,0.4098,0.407,0.407,0.405,0.4055,0.4027,0.4021,0.4028,0.4006,0.4015,0.3991,0.3996,0.3949,0.3958,0.3951,0.3953,0.3917,0.392,0.3804,0.3789,0.3899,0.3898,0.3898,0,0.4072,0.4046,0.4045,0.4032,0.4029,0.4008,0.3997,0.4013,0.4,0.399,0.397,0.395,0.3934,0.3897,0.3899,0.3881,0.3889,0.385,0.3886,0.3881,0.3885,0.3886,0.3882,0.3841,0.384,0.3839,0.3838,0,0.3976,0.3983,0.3966,0.3951,0.3937,0.3926,0.3917,0.3905,0.3921,0.3905,0.3883,0.3871,0.3847,0.3826,0.381,0.3807,0.3824,0.3827,0.3818,0.381,0.3807,0.3806,0.3929,0.3829,0.383,0.383,0.3831,0.3831,0.3904,0.3883,0.3879,0.3859,0.3855,0.3846,0.3826,0.383,0.3812,0.3794,0.3805,0.3778,0.3772,0.3753,0.3748,0.3727,0.3742,0.3729,0.3725,0.3721,0.3715,0.3813,0.3724,0.3725,0.3725,0.3725,0.3725,0,0.3808,0.3807,0.379,0.3776,0.3761,0.3781,0.3772,0.3758,0.3734,0.3728,0.3713,0.3687,0.3667,0.3669,0.3651,0.3634,0.3641,0.3628,0.3628,0.3627,0.3704,0.3713,0.3623,0.3623,0.3623,0.3623,0.3623,0.3623,0.3756,0.372,0.3727,0.3689,0.3689,0.3664,0.3656,0.3648,0.3643,0.3614,0.3598,0.36,0.3597,0.3579,0.3561,0.3563,0.3554,0.3537,0.3541,0.3612,0.3622,0.3631,0.3639,0.3536,0.3536,0.3466,0.3465,0.3464]},{"header":{"parameterUnit":"m.s-1","parameterCategory":1,"la1":30.2991,"la2":30.254,"lo1":-89.0895,"lo2":-89.0444,"dx":0.0017,"dy":0.0017,"nx":28,"ny":28,"refTime":"2022-11-16T09:00:00:Z","depth":0,"parameterNumber":3,"parameterNumberName":"V-component_of_WINDS"},"data":[0,0,0,0,0,0,0,0,0,0,0,0,0,0,0,0,0,0,0,0,0,0,0,0,0,0,0,0,0,0,0,0,0,0,0,0,0,0,0,0,0,0,0,0,0,0,0,0,0,0,0,0,0,0,0,0,0,0,-6.6847,-6.6849,0,-6.6996,-6.6998,-6.6999,-6.6915,-6.6911,-6.6907,-6.6903,-6.705,-6.7058,-6.7065,0,0,0,0,0,0,0,0,0,0,0,0,0,-6.6485,-6.6492,-6.6847,-6.6849,-6.6851,-6.6996,-6.6998,-6.7,-6.6916,-6.6911,-6.6906,-6.6901,-6.7047,-6.7057,-6.7066,0,0,0,0,0,0,0,0,0,0,0,0,0,-6.6638,-6.6494,-6.6847,-6.6826,-6.6826,-6.6995,-6.6998,-6.7,-6.6917,-6.6911,-6.6904,-6.6899,-6.7044,-6.7056,-6.7067,-6.7263,0,0,-6.7103,-6.7108,0,0,0,0,0,0,0,0,-6.663,-6.6652,-6.6827,-6.6828,-6.6828,-6.6931,-6.6924,-6.7088,-6.6918,-6.6882,-6.6903,-6.6896,-6.7015,-6.7029,-6.707,-6.727,-6.7276,-6.7104,-6.7111,-6.7116,-6.7119,0,0,0,0,0,0,0,-6.6619,-6.6645,-6.6906,-6.683,-6.6831,-6.6808,-6.6823,-6.6954,-6.6981,-6.6885,-6.6879,-6.6898,-6.7014,-6.7059,-6.7073,-6.7278,-6.7104,-6.7114,-6.7121,-6.7126,-6.7646,-6.7652,0,0,0,0,0,0,-6.6611,-6.6637,-6.6901,-6.691,-6.6712,-6.682,-6.6836,-6.6904,-6.698,-6.6985,-6.6903,-6.6894,-6.7042,-6.7059,-6.7078,-6.7312,-6.7116,-6.7127,-6.7133,-6.7639,-6.7647,-6.7655,0,0,0,0,0,0,-6.6603,-6.6635,-6.6895,-6.6772,-6.6803,-6.6833,-6.6909,-6.691,-6.6955,-6.6994,-6.6997,-6.6945,-6.7038,-6.7061,-6.7218,-6.7316,-6.7132,-6.7143,-6.7631,-6.7641,-6.7651,-6.7782,0,0,0,0,0,0,-6.6593,-6.6633,-6.6709,-6.6774,-6.681,-6.7035,-6.6915,-6.6917,-6.6976,-6.6965,-6.7034,-6.7039,-6.7035,-6.7201,-6.7229,-6.7329,-6.7152,-6.7622,-6.7636,-6.7648,-6.7769,-6.7796,-6.7818,0,0,0,0,0,-6.6581,-6.6739,-6.6713,-6.6746,-6.6906,-6.7041,-6.7061,-6.7054,-6.6984,-6.706,-6.7085,-6.7037,-6.7301,-6.7218,-6.7249,-6.7353,-6.7616,-6.7632,-6.7647,-6.7758,-6.7791,-6.7818,0,0,0,0,0,0,-6.6683,-6.6747,-6.6719,-6.6904,-6.6968,-6.7026,-6.7122,-6.7089,-6.7172,-6.7158,-6.7144,-6.7161,-6.7324,-6.7354,-6.726,-6.7546,-6.7447,-6.7469,-6.7521,-6.7552,-6.7576,-6.7566,-6.7161,0,0,0,0,0,-6.6727,-6.6832,-6.6882,-6.704,-6.7074,-6.7093,-6.7151,-6.714,-6.7205,-6.7231,-6.7267,-6.733,-6.7427,-6.7491,-6.7582,-6.7773,-6.7786,-6.786,-6.7884,-6.7904,-6.7924,-6.8027,-6.806,-6.7705,-6.7705,-6.7705,0,0,-6.6819,-6.6867,-6.6934,-6.7062,-6.711,-6.7218,-6.7116,-6.7234,-6.7314,-6.7248,-6.7399,-6.7428,-6.7497,-6.7672,-6.775,-6.7702,-6.8025,-6.7924,-6.794,-6.7948,-6.8046,-6.808,-6.8109,-6.7715,-6.7714,-6.7712,0,0,-6.7042,-6.7089,-6.7226,-6.7277,-6.7352,-6.7363,-6.7396,-6.746,-6.7477,-6.7629,-6.7582,-6.7675,-6.7842,-6.7894,-6.7942,-6.8184,-6.8143,-6.8214,-6.8342,-6.8443,-6.8471,-6.8496,-6.8582,-6.8613,-6.8233,-6.8234,-6.8234,0,-6.7146,-6.7309,-6.73,-6.7423,-6.748,-6.7428,-6.7566,-6.7614,-6.7714,-6.7754,-6.7699,-6.7908,-6.7951,-6.8137,-6.8196,-6.8237,-6.8273,-6.8207,-6.8468,-6.8493,-6.8515,-6.8598,-6.8631,-6.8242,-6.8241,-6.824,-6.8239,0,-6.7434,-6.7547,-6.7649,-6.7749,-6.7817,-6.7947,-6.7956,-6.8026,-6.801,-6.8026,-6.8181,-6.823,-6.8331,-6.8374,-6.8358,-6.8558,-6.8525,-6.8469,-6.8369,-6.8558,-6.8635,-6.8666,-6.8254,-6.8251,-6.8248,-6.8246,0,0,-6.7726,-6.782,-6.7858,-6.7903,-6.7981,-6.8068,-6.8194,-6.8294,-6.8354,-6.8425,-6.853,-6.8673,-6.8622,-6.8676,-6.8665,-6.8753,-6.8943,-6.8686,-6.8687,-6.8732,-6.9166,-6.9208,-6.9245,-6.8915,-6.8921,-6.8926,-6.916,0,-6.7955,-6.8178,-6.8174,-6.8381,-6.8485,-6.8436,-6.8546,-6.8605,-6.8624,-6.8714,-6.8733,-6.8836,-6.876,-6.8793,-6.8878,-6.8902,-6.9029,-6.8884,-6.9012,-6.9017,-6.8997,-6.9285,-6.933,-6.9549,-6.919,-6.9195,-6.9199,0,-6.8252,-6.8334,-6.8552,-6.8616,-6.8659,-6.8759,-6.885,-6.8937,-6.9002,-6.9009,-6.9071,-6.9046,-6.9173,-6.9069,-6.9243,-6.9144,-6.9196,-6.9215,-6.9224,-6.9236,-6.912,-6.9305,-6.9618,-6.9651,-6.9246,-6.9242,-6.9239,0,-6.8443,-6.8609,-6.8761,-6.88,-6.8878,-6.8949,-6.8984,-6.9043,-6.9104,-6.9183,-6.9222,-6.9314,-6.9364,-6.9435,-6.9435,-6.936,-6.9611,-6.9507,-6.962,-6.962,-6.9676,-6.9672,-7.0002,-6.9708,-6.9708,-6.9707,-6.9706,0,-6.87,-6.8835,-6.8848,-6.8942,-6.9091,-6.9084,-6.9232,-6.9259,-6.9313,-6.941,-6.9372,-6.9463,-6.9457,-6.9549,-6.955,-6.9694,-6.9716,-6.9725,-6.9724,-6.9729,-6.9728,-6.9763,-6.9748,-6.9716,-6.9714,-6.9712,-6.9711,0,-6.894,-6.8954,-6.9117,-6.9177,-6.9195,-6.9303,-6.9354,-6.9442,-6.9457,-6.958,-6.9608,-6.9632,-6.9738,-6.9745,-6.9867,-6.9867,-7.0042,-7.0024,-7.0021,-7.0018,-7.0131,-7.012,-7.0495,-7.0543,-7.0218,-7.0221,-7.0223,0,-6.9103,-6.9206,-6.9278,-6.9341,-6.9381,-6.9483,-6.9545,-6.9541,-6.9607,-6.9689,-6.9767,-6.987,-6.9952,-7.0124,-7.0151,-7.0244,-7.0228,-7.0352,-7.0241,-7.0243,-7.023,-7.0224,-7.0234,-7.0374,-7.0378,-7.0381,-7.0383,0,-6.9391,-6.9393,-6.9485,-6.958,-6.9655,-6.9729,-6.9798,-6.9851,-6.9855,-6.993,-7.004,-7.0104,-7.0229,-7.0331,-7.0422,-7.0456,-7.0421,-7.0418,-7.0449,-7.0456,-7.045,-7.0455,-7.0081,-7.0409,-7.0407,-7.0405,-7.0403,-7.0402,-6.9598,-6.9687,-6.9753,-6.9856,-6.9907,-6.9973,-7.0059,-7.0085,-7.0177,-7.0281,-7.0272,-7.0393,-7.0454,-7.0573,-7.0614,-7.0707,-7.0665,-7.071,-7.0721,-7.0732,-7.0745,-7.0435,-7.0723,-7.0723,-7.0722,-7.0721,-7.0721,0,-6.9884,-6.9924,-7.0019,-7.0118,-7.0199,-7.0159,-7.0233,-7.0303,-7.0411,-7.0472,-7.0555,-7.068,-7.0779,-7.0814,-7.091,-7.0978,-7.0964,-7.1003,-7.0998,-7.1007,-7.0777,-7.0741,-7.1013,-7.1013,-7.1013,-7.1013,-7.1013,-7.1013,-7.0043,-7.0193,-7.0203,-7.0377,-7.0415,-7.0535,-7.058,-7.064,-7.0689,-7.0831,-7.0914,-7.0937,-7.0987,-7.1087,-7.1175,-7.1182,-7.122,-7.1266,-7.1267,-7.1052,-7.1023,-7.0995,-7.0961,-7.1274,-7.1275,-7.1489,-7.1491,-7.1492]}]]